• En España
  • Lista de países
  • Para 7 días
  • Temperatura del agua
  • Mapa Satelital
  • El tiempo en el mapa
  • Informadores
  • user-avatar
    Iniciar sesión

    Tiempo cada hora Trzebien

    Hoy, 17 Julio, Martes

    Tiempo Temperatura Precipitaciones Viento Presión Humedad
    00:00 +19°C° 0,8 mm 2 mps 749 mmHg 95%
    01:00 +19°C° 0,8 mm 2 mps 749 mmHg 95%
    02:00 +19°C° 1 mm 2 mps 748 mmHg 95%
    03:00 +19°C° 1 mm 2 mps 748 mmHg 95%
    04:00 +19°C° 1 mm 3 mps 748 mmHg 95%
    05:00 +19°C° 0,8 mm 3 mps 748 mmHg 94%
    06:00 +19°C° 0,8 mm 3 mps 748 mmHg 93%
    07:00 +20°C° 0,8 mm 3 mps 748 mmHg 92%
    08:00 +20°C° 1 mm 3 mps 748 mmHg 90%
    09:00 +21°C° 1 mm 3 mps 748 mmHg 88%
    10:00 +21°C° 1 mm 3 mps 748 mmHg 85%
    11:00 +21°C° 0,9 mm 3 mps 748 mmHg 85%
    12:00 +22°C° 0,9 mm 4 mps 748 mmHg 84%
    13:00 +22°C° 0,9 mm 4 mps 748 mmHg 84%
    14:00 +22°C° 0,8 mm 4 mps 748 mmHg 85%
    15:00 +21°C° 0,8 mm 4 mps 747 mmHg 87%
    16:00 +21°C° 0,8 mm 4 mps 747 mmHg 88%
    17:00 +21°C° 0,8 mm 4 mps 747 mmHg 90%
    18:00 +20°C° 0,8 mm 4 mps 747 mmHg 92%
    19:00 +20°C° 0,8 mm 4 mps 747 mmHg 93%
    20:00 +20°C° 0,8 mm 4 mps 747 mmHg 94%
    21:00 +19°C° 0,8 mm 4 mps 747 mmHg 95%
    22:00 +19°C° 0,8 mm 4 mps 748 mmHg 96%
    23:00 +19°C° 1,3 mm 4 mps 748 mmHg 96%

    Mañana, 18 Julio, Miércoles

    Tiempo Temperatura Precipitaciones Viento Presión Humedad
    00:00 +19°C° 1,3 mm 4 mps 748 mmHg 96%
    01:00 +19°C° 1,3 mm 4 mps 748 mmHg 97%
    02:00 +19°C° 0,8 mm 4 mps 748 mmHg 97%
    03:00 +19°C° 0,8 mm 4 mps 748 mmHg 97%
    04:00 +19°C° 0,8 mm 4 mps 748 mmHg 97%
    05:00 +19°C° 0,6 mm 3 mps 748 mmHg 96%
    06:00 +19°C° 0,6 mm 3 mps 748 mmHg 96%
    07:00 +20°C° 0,6 mm 3 mps 748 mmHg 95%
    08:00 +21°C° 0,7 mm 3 mps 748 mmHg 92%
    09:00 +21°C° 0,7 mm 4 mps 748 mmHg 90%
    10:00 +22°C° 0,7 mm 4 mps 749 mmHg 87%
    11:00 +23°C° 1,1 mm 4 mps 749 mmHg 84%
    12:00 +25°C° 1,1 mm 5 mps 749 mmHg 82%
    13:00 +26°C° 1,1 mm 5 mps 749 mmHg 79%
    14:00 +26°C° 1 mm 5 mps 749 mmHg 79%
    15:00 +26°C° 1 mm 5 mps 749 mmHg 80%
    16:00 +25°C° 1 mm 5 mps 749 mmHg 81%
    17:00 +23°C° 0,7 mm 5 mps 749 mmHg 84%
    18:00 +23°C° 0,7 mm 5 mps 749 mmHg 86%
    19:00 +22°C° 0,7 mm 4 mps 750 mmHg 89%
    20:00 +21°C° 0 mm 4 mps 750 mmHg 90%
    21:00 +20°C° 0 mm 4 mps 750 mmHg 91%
    22:00 +20°C° 0 mm 4 mps 750 mmHg 93%
    23:00 +19°C° 0 mm 4 mps 750 mmHg 93%

    Pasado mañana, 19 Julio, Jueves

    Tiempo Temperatura Precipitaciones Viento Presión Humedad
    00:00 +19°C° 0 mm 3 mps 750 mmHg 93%
    01:00 +19°C° 0 mm 3 mps 750 mmHg 93%
    02:00 +19°C° 0 mm 3 mps 750 mmHg 92%
    03:00 +19°C° 0 mm 3 mps 750 mmHg 92%
    04:00 +19°C° 0 mm 3 mps 750 mmHg 92%
    05:00 +19°C° 0 mm 3 mps 750 mmHg 90%
    06:00 +20°C° 0 mm 3 mps 750 mmHg 89%
    07:00 +20°C° 0 mm 3 mps 751 mmHg 87%
    08:00 +21°C° 0 mm 3 mps 751 mmHg 83%
    09:00 +22°C° 0 mm 3 mps 751 mmHg 79%
    10:00 +24°C° 0 mm 3 mps 751 mmHg 76%
    11:00 +25°C° 0,1 mm 4 mps 751 mmHg 71%
    12:00 +26°C° 0,1 mm 4 mps 751 mmHg 65%
    13:00 +27°C° 0,1 mm 4 mps 751 mmHg 60%
    14:00 +27°C° 0,1 mm 4 mps 751 mmHg 61%
    15:00 +27°C° 0,1 mm 4 mps 751 mmHg 62%
    16:00 +26°C° 0,1 mm 4 mps 751 mmHg 63%
    17:00 +25°C° 0 mm 4 mps 751 mmHg 67%
    18:00 +23°C° 0 mm 4 mps 751 mmHg 70%
    19:00 +22°C° 0 mm 3 mps 751 mmHg 74%
    20:00 +21°C° 0 mm 3 mps 751 mmHg 78%
    21:00 +20°C° 0 mm 3 mps 752 mmHg 81%
    22:00 +19°C° 0 mm 3 mps 752 mmHg 85%
    23:00 +18°C° 0 mm 3 mps 752 mmHg 86%

    20 Julio, Viernes

    Tiempo Temperatura Precipitaciones Viento Presión Humedad
    00:00 +18°C° 0 mm 3 mps 752 mmHg 88%
    01:00 +18°C° 0 mm 3 mps 751 mmHg 89%
    02:00 +17°C° 0 mm 3 mps 751 mmHg 90%
    03:00 +17°C° 0 mm 3 mps 751 mmHg 90%
    04:00 +16°C° 0 mm 3 mps 751 mmHg 91%
    05:00 +18°C° 0 mm 3 mps 751 mmHg 86%
    06:00 +19°C° 0 mm 3 mps 751 mmHg 82%
    07:00 +20°C° 0 mm 3 mps 751 mmHg 77%
    08:00 +22°C° 0 mm 3 mps 751 mmHg 71%
    09:00 +24°C° 0 mm 3 mps 751 mmHg 65%
    10:00 +26°C° 0 mm 3 mps 751 mmHg 58%
    11:00 +27°C° 0 mm 4 mps 751 mmHg 56%
    12:00 +27°C° 0 mm 4 mps 751 mmHg 54%
    13:00 +28°C° 0 mm 4 mps 751 mmHg 51%
    14:00 +28°C° 0 mm 4 mps 751 mmHg 53%
    15:00 +27°C° 0 mm 4 mps 751 mmHg 54%
    16:00 +27°C° 0 mm 4 mps 751 mmHg 56%
    17:00 +26°C° 0,1 mm 4 mps 751 mmHg 62%
    18:00 +25°C° 0,1 mm 3 mps 751 mmHg 67%
    19:00 +22°C° 0,1 mm 3 mps 751 mmHg 73%
    20:00 +21°C° 0 mm 3 mps 751 mmHg 77%
    21:00 +19°C° 0 mm 3 mps 751 mmHg 81%
    22:00 +18°C° 0 mm 2 mps 751 mmHg 85%
    23:00 +17°C° 0 mm 2 mps 751 mmHg 85%

    21 Julio, Sábado

    Tiempo Temperatura Precipitaciones Viento Presión Humedad
    00:00 +17°C° 0 mm 2 mps 751 mmHg 85%
    01:00 +16°C° 0 mm 2 mps 751 mmHg 85%
    02:00 +16°C° 0 mm 2 mps 751 mmHg 85%
    03:00 +15°C° 0 mm 2 mps 751 mmHg 84%
    04:00 +15°C° 0 mm 2 mps 751 mmHg 83%
    05:00 +16°C° 0 mm 2 mps 751 mmHg 79%
    06:00 +18°C° 0 mm 2 mps 751 mmHg 75%
    07:00 +19°C° 0 mm 2 mps 751 mmHg 71%
    08:00 +21°C° 0 mm 2 mps 751 mmHg 65%
    09:00 +23°C° 0 mm 2 mps 751 mmHg 59%
    10:00 +25°C° 0 mm 2 mps 751 mmHg 53%
    11:00 +26°C° 0 mm 2 mps 751 mmHg 50%
    12:00 +27°C° 0 mm 2 mps 751 mmHg 47%
    13:00 +27°C° 0 mm 2 mps 751 mmHg 44%
    14:00 +27°C° 0 mm 2 mps 751 mmHg 44%
    15:00 +27°C° 0 mm 2 mps 750 mmHg 45%
    16:00 +27°C° 0 mm 2 mps 750 mmHg 45%
    17:00 +26°C° 0 mm 2 mps 750 mmHg 52%
    18:00 +24°C° 0 mm 2 mps 750 mmHg 59%
    19:00 +22°C° 0 mm 3 mps 750 mmHg 66%
    20:00 +21°C° 0 mm 3 mps 750 mmHg 70%
    21:00 +19°C° 0 mm 3 mps 750 mmHg 74%
    22:00 +18°C° 0 mm 3 mps 750 mmHg 78%
    23:00 +17°C° 0 mm 2 mps 750 mmHg 79%

    22 Julio, Domingo

    Tiempo Temperatura Precipitaciones Viento Presión Humedad
    00:00 +16°C° 0 mm 2 mps 750 mmHg 79%
    01:00 +16°C° 0 mm 1 mps 750 mmHg 80%
    02:00 +16°C° 0 mm 1 mps 750 mmHg 79%
    03:00 +16°C° 0 mm 1 mps 750 mmHg 78%
    04:00 +15°C° 0 mm 1 mps 750 mmHg 77%
    05:00 +18°C° 0 mm 1 mps 750 mmHg 73%
    06:00 +19°C° 0 mm 1 mps 750 mmHg 69%
    07:00 +19°C° 0 mm 2 mps 750 mmHg 66%
    08:00 +21°C° 0 mm 2 mps 751 mmHg 60%
    09:00 +23°C° 0 mm 2 mps 751 mmHg 55%
    10:00 +24°C° 0 mm 2 mps 751 mmHg 50%
    11:00 +25°C° 0 mm 2 mps 751 mmHg 48%
    12:00 +26°C° 0 mm 2 mps 750 mmHg 47%
    13:00 +26°C° 0 mm 2 mps 750 mmHg 45%
    14:00 +26°C° 0,2 mm 2 mps 750 mmHg 49%
    15:00 +25°C° 0,2 mm 2 mps 750 mmHg 52%
    16:00 +25°C° 0,2 mm 2 mps 750 mmHg 56%
    17:00 +24°C° 0,4 mm 2 mps 750 mmHg 63%
    18:00 +23°C° 0,4 mm 2 mps 750 mmHg 70%
    19:00 +21°C° 0,4 mm 2 mps 750 mmHg 77%
    20:00 +19°C° 0 mm 2 mps 750 mmHg 81%
    21:00 +18°C° 0 mm 2 mps 751 mmHg 86%
    22:00 +17°C° 0 mm 2 mps 751 mmHg 90%
    23:00 +17°C° 0 mm 2 mps 751 mmHg 91%
    Mostrar más